Location: Wawayanda State Park
(41.1833°N, 74.4333°W)
Time: 02:59:36
(UTC-04:00)

RESURS DK-1 - Visible Passes

Search period start: 27 September 2016 00:00
Search period end: 07 October 2016 00:00
Orbit: 557 x 564 km, 69.9° (Epoch: 26 September)

Date Brightness Start Highest point End Pass type
(mag) Time Alt. Az. Time Alt. Az. Time Alt. Az.
27 Sep 4.2 04:10:02 28° E 04:10:02 28° E 04:13:00 10° NE visible
27 Sep 3.6 05:46:00 20° W 05:47:26 24° NW 05:50:51 10° N visible
28 Sep 4.2 04:09:30 30° ENE 04:09:30 30° ENE 04:11:59 10° NE visible
28 Sep 3.9 05:45:28 18° WNW 05:46:20 19° NW 05:49:18 10° N visible
29 Sep 4.3 04:08:52 27° NE 04:08:52 27° NE 04:10:52 10° NNE visible
29 Sep 4.2 05:44:50 14° WNW 05:45:14 15° NW 05:47:35 10° NNW visible
30 Sep 4.6 04:08:10 22° NNE 04:08:10 22° NNE 04:09:41 10° NNE visible
30 Sep 4.5 05:44:07 11° NW 05:44:10 11° NW 05:45:29 10° NNW visible
01 Oct 4.8 04:07:23 17° NNE 04:07:23 17° NNE 04:08:28 10° NNE visible
02 Oct 5.1 04:06:33 14° NNE 04:06:33 14° NNE 04:07:10 10° NNE visible
03 Oct 5.3 04:05:40 11° N 04:05:40 11° N 04:05:49 10° N visible
